Weather History for New Bedford, MA

Change the Weather History Date:

Monday, February 18, 2013

  Actual Average Record
Temperature  
Mean Temperature 22 °F -  
Max Temperature 30 °F 38 °F 65 °F (1981)
Min Temperature 15 °F 24 °F -3 °F (1979)
Degree Days  
Heating Degree Days 42    
Moisture  
Dew Point 2 °F    
Average Humidity 40    
Maximum Humidity 52    
Minimum Humidity 29    
Precipitation  
Precipitation 0.00 in - - ()
Sea Level Pressure  
Sea Level Pressure 29.98 in    
Wind  
Wind Speed 17 mph (WNW)    
Max Wind Speed 25 mph    
Max Gust Speed 36 mph    
Visibility 10 miles    
Events Snow    
Averages and records for this station are not official NWS values.
T = Trace of Precipitation, MM = Missing Value Source: NWS Daily Summary

Daily Weather History Graph

Daily Weather History Graph

Search for Another Location

Airport:

Trip Planner

Search our weather history database for the weather conditions in past years. The results will help you decide how hot, cold, wet, or windy it might be!

Date:

Astronomy

Feb. 18, 2013 Rise Set
Actual Time 6:34 AM EST 5:21 PM EST
Civil Twilight 6:06 AM EST 5:49 PM EST
Nautical Twilight 5:34 AM EST 6:22 PM EST
Astronomical Twilight 5:01 AM EST 6:54 PM EST
Moon 11:02 AM EST (2/18) 1:13 AM EST (2/18)
Length of Visible Light 11h 43m
Length of Day
10h 46m
First Quarter, 58% of the Moon is Illuminated
Feb 18
First Quarter
Feb 25
Full
Mar 4
Last Quarter
Mar 11
New
Mar 19
First Quarter

Hourly Weather History & Observations

Time (EST) Temp. Windchill Dew Point Humidity Pressure Visibility Wind Dir Wind Speed Gust Speed Precip Events Conditions
12:53 AM 17.1 °F 1.5 °F 1.9 °F 52% 29.71 in 10.0 mi WNW 17.3 mph 28.8 mph N/A Snow Blowing Snow
1:53 AM 16.0 °F -1.7 °F 1.0 °F 52% 29.73 in 10.0 mi West 21.9 mph 32.2 mph N/A Snow Blowing Snow
2:53 AM 16.0 °F -0.4 °F 1.0 °F 52% 29.75 in 7.0 mi WNW 18.4 mph 33.4 mph N/A Snow Blowing Snow
3:53 AM 15.8 °F -0.2 °F -0.4 °F 49% 29.77 in 10.0 mi WNW 17.3 mph 28.8 mph N/A Snow Blowing Snow
4:53 AM 16.0 °F -0.9 °F -0.0 °F 49% 29.81 in 10.0 mi WNW 19.6 mph 29.9 mph N/A Snow Blowing Snow
5:53 AM 16.0 °F -1.3 °F -0.0 °F 49% 29.86 in 10.0 mi WNW 20.7 mph 32.2 mph N/A Snow Blowing Snow
6:53 AM 15.8 °F -1.5 °F -0.4 °F 49% 29.89 in 10.0 mi WNW 20.7 mph 29.9 mph N/A   Clear
7:53 AM 17.1 °F 3.0 °F -0.0 °F 47% 29.94 in 10.0 mi WNW 13.8 mph 25.3 mph N/A   Clear
8:53 AM 19.4 °F 3.6 °F 1.4 °F 46% 29.96 in 10.0 mi WNW 19.6 mph 35.7 mph N/A   Clear
9:53 AM 23.0 °F 8.3 °F 1.9 °F 40% 29.97 in 10.0 mi WNW 19.6 mph 29.9 mph N/A   Clear
10:53 AM 25.0 °F 11.7 °F 1.9 °F 37% 29.99 in 10.0 mi WNW 17.3 mph 31.1 mph N/A   Clear
11:53 AM 28.0 °F 15.3 °F 3.0 °F 34% 29.99 in 10.0 mi WNW 18.4 mph 26.5 mph N/A   Clear
12:53 PM 30.0 °F 16.0 °F 3.0 °F 32% 30.01 in 10.0 mi West 25.3 mph 34.5 mph N/A   Clear
1:53 PM 30.0 °F 17.9 °F 3.0 °F 32% 30.02 in 10.0 mi West 18.4 mph 25.3 mph N/A   Clear
2:53 PM 30.9 °F 19.4 °F 1.9 °F 29% 30.04 in 10.0 mi WSW 17.3 mph 25.3 mph N/A   Clear
3:53 PM 30.0 °F 17.9 °F 1.0 °F 29% 30.05 in 10.0 mi West 18.4 mph 26.5 mph N/A   Clear
4:53 PM 28.9 °F 19.2 °F 1.0 °F 30% 30.08 in 10.0 mi West 11.5 mph - N/A   Clear
5:53 PM 28.0 °F 18.6 °F 1.0 °F 31% 30.10 in 10.0 mi West 10.4 mph - N/A   Clear
6:53 PM 26.6 °F 15.7 °F 1.4 °F 34% 30.12 in 10.0 mi West 12.7 mph - N/A   Clear
7:53 PM 27.0 °F 18.0 °F 1.0 °F 33% 30.14 in 10.0 mi West 9.2 mph - N/A   Clear
8:53 PM 27.0 °F 16.7 °F 1.9 °F 34% 30.16 in 10.0 mi West 11.5 mph - N/A   Clear
9:53 PM 26.1 °F 17.6 °F 1.9 °F 35% 30.16 in 10.0 mi West 8.1 mph - N/A   Clear
10:53 PM 26.1 °F 17.6 °F 5.0 °F 41% 30.17 in 10.0 mi West 8.1 mph - N/A   Clear
11:53 PM 26.1 °F 16.2 °F 6.1 °F 43% 30.18 in 10.0 mi West 10.4 mph - N/A   Clear